Location: *
(37.5724°S, 58.0067°E)
Time: 11:29:44
(UTC+00:00)

USA 229 DEB - Pass Details

Date: 05 December 2021
Orbit: 943 x 1269 km, 63.4° (Epoch: 14 January)

Event Time Altitude Azimuth Distance (km) Brightness Sun altitude
Rises 16:11:08 0° 338° (NNW) 4,213 6.6 -9.6°
Reaches altitude 10° 16:13:58 10° 340° (NNW) 3,241 6.0 -10.1°
Maximum altitude 16:21:48 71° 61° (ENE) 1,298 4.0 -11.3°
Drops below altitude 10° 16:29:16 10° 143° (SE) 3,104 6.2 -12.4°
Sets 16:31:56 0° 145° (SE) 4,026 6.8 -12.8°
